Regional Weather Roundup
Issued by NWS

Home | Current Version | Previous Version | Graphics & Text | Print | Product List | Glossary On
Versions: 1 2 3 4 5 6 7 8 9 10 11 12 13 14 15 16 17 18 19 20 21 22 23 24 25 26 27 28 29 30 31 32 33 34 35 36 37 38 39 40 41 42 43 44 45 46 47 48 49 50
000
ASUS43 KDMX 232007
RWRIA

WEATHER ROUNDUP FOR IOWA
NATIONAL WEATHER SERVICE DES MOINES IA
200 PM CST SUN NOV 23 2014

NOTE: "FAIR" INDICATES FEW OR NO CLOUDS BELOW 12,000 FEET WITH NO
SIGNIFICANT WEATHER AND/OR OBSTRUCTIONS TO VISIBILITY.

* - THESE STATIONS ARE NOT NWS STATIONS...THUS NOT UNDER NWS
QUALITY CONTROL.  THEY ALSO DO NOT REPORT WEATHER SUCH
AS PRECIPITATION OR FOG.

IAZ001>003-012>014-020>022-031>034-043>046-232100-
   NORTHWEST IOWA

CITY           SKY/WX    TMP DP  RH WIND       PRES   REMARKS
CARROLL *      CLOUDY    45  41  87 NW26      29.40F
CHEROKEE *     CLOUDY    43  39  87 N22       29.45F
DENISON *      CLOUDY    45  39  81 N25       29.43F
LE MARS *      CLOUDY    43  37  81 NW16G24   29.49F
ORANGE CITY *  SUNNY     41  36  81 NW13G20   29.48S
SHELDON *      LGT RAIN  39  37  93 NW16G23   29.47R WCI  30
SIOUX CITY     LGT RAIN  44  37  76 NW17      29.50R
SPENCER        CLOUDY    43  37  79 NW18      29.46S
STORM LAKE *   CLOUDY    43  37  81 N26G32    29.45S
$$

IAZ055>058-069>071-079>083-090>094-232100-
   SOUTHWEST IOWA

CITY           SKY/WX    TMP DP  RH WIND       PRES   REMARKS
ATLANTIC *     CLOUDY    46  41  81 NW23G31   29.41R
AUDUBON *      MOSUNNY   46  37  71 NW20G30   29.42R
CLARINDA *     CLOUDY    46  43  87 N22G35    29.41R
COUNCIL BLFS * CLOUDY    45  39  81 N24G35    29.43F
CRESTON *      DRZL/FOG  54  54 100 W6        29.35F VSB 1
HARLAN  *      CLOUDY    45  41  87 NW29G36   29.47R
LAMONI         CLOUDY    54  53  97 SW6       29.35F
RED OAK *      CLOUDY    46  43  87 NW17G24   29.43R
SHENANDOAH *   CLOUDY    46  41  81 N22G31    29.43R
$$

IAZ047>049-059>061-072>074-084-232100-
   CENTRAL IOWA

CITY           SKY/WX    TMP DP  RH WIND       PRES   REMARKS
AMES           CLOUDY    53  51  93 S5        29.35F
ANKENY *       CLOUDY    54  52  94 CALM      29.35F
CHARITON *     CLOUDY    54  54 100 S6        29.35F
DES MOINES     CLOUDY    54  51  90 SE3       29.35F
GRINNELL*      RAIN      50  50 100 SE3       29.36F
KNOXVILLE *    CLOUDY    54  52  94 SW3       29.34F
MARSHALLTOWN   CLOUDY    51  51 100 S3        29.35F
PELLA *        LGT RAIN  52  52 100 CALM      29.36F
PERRY *        CLOUDY    50  48  93 NW17G25   29.37R FOG
$$

IAZ004>006-015-016-023>025-035-036-232100-
   NORTH CENTRAL IOWA

CITY           SKY/WX    TMP DP  RH WIND       PRES   REMARKS
ALGONA *       CLOUDY    46  43  87 NW18G24   29.40S
CLARION *      CLOUDY    52  52 100 NW20      29.35F
ESTHERVILLE    CLOUDY    43  39  86 NW24G31   29.44R
FORT DODGE *   CLOUDY    46  43  87 NW12      29.39F
MASON CITY     FOG       50  50 100 S5        29.37F VSB 1/4
FOREST CITY *  CLOUDY    50  50 100 NW13      29.36F FOG
IOWA FALLS *   FOG       50  50 100 S6        29.36F VSB 1/2
$$

IAZ007>011-017>019-026>030-037>042-050>054-066-232100-
   NORTHEAST IOWA

CITY           SKY/WX    TMP DP  RH WIND       PRES   REMARKS
CEDAR RAPIDS   LGT RAIN  50  50 100 S6        29.37F FOG
CHARLES CITY * CLOUDY    50  50 100 S7        29.37F FOG
CLINTON *      CLOUDY    50  48  93 SE13      29.44F
DECORAH *      CLOUDY    50  50 100 VRB6      29.38F FOG
DUBUQUE        LGT RAIN  47  47 100 SE10      29.41F FOG
MONTICELLO *   LGT RAIN  50  50 100 SE8       29.39F
OELWEIN *      CLOUDY    50  50 100 SE7       29.39F FOG
WATERLOO       LGT RAIN  50  50 100 SE6       29.37F FOG
$$

IAZ064-065-067-068-078-232100-
   EAST CENTRAL IOWA

CITY           SKY/WX    TMP DP  RH WIND       PRES   REMARKS
DAVENPORT      RAIN      51  49  92 SE14      29.41F FOG
IOWA CITY      LGT RAIN  50  32  50 SE7       29.40F
MT. PLEASANT * RAIN      52  52 100 S8        29.38F
MUSCATINE *    LGT RAIN  52  50  93 SE7       29.39F
QUAD CITIES    LGT RAIN  53  50  89 SE12      29.40F FOG
$$

IAZ062-063-075>077-085>089-095>099-232100-
   SOUTHEAST IOWA

CITY           SKY/WX    TMP DP  RH WIND       PRES   REMARKS
BURLINGTON     LGT RAIN  52  51  97 S9        29.38F FOG
FAIRFIELD *    DRIZZLE   52  52 100 S8        29.37F
FORT MADISON * LGT RAIN  54  54 100 S6        29.39F
KEOKUK *       CLOUDY    54  52  94 S8        29.37F
OSKALOOSA *    LGT RAIN  52  52 100 S5        29.36F
CENTERVILLE *    N/A     54  54 100 S7        29.36F
OTTUMWA        LGT RAIN  53  52  96 S8        29.35F FOG
WASHINGTON *   LGT RAIN  52  52 100 S12       29.37F
$$

ABBREVIATIONS USED IN REMARKS
   TC - TEMPERATURES IN CELSIUS
  WCI - WIND CHILL INDEX
   HX - HEAT INDEX
  VSB - VISIBILITY
$$




USA.gov is the U.S. government's official web portal to all federal, state and local government web resources and services.